Simultaneous Nadir Overpasses (SNOs) Predictions

Prediction of SNOs between NPP and TERRA Satellite Orbit:

Table of predicted SNOs for the next 14.0 days since TLE Epoch: 3/10/2018
Index Date (NPP) Time (NPP) Lat,Lon (NPP) SZA (NPP ) Date (TERRA) Time (TERRA) Lat,Lon (TERRA) SZA (TERRA ) Distance(km) Time Diff (sec)
1 03/10/2018 19:12:42 68.33,-109.57 72.17 03/10/2018 19:13:30 68.32,-109.57 72.14 1.82 48
2 03/10/2018 20:03:23 -68.21, 57.92 107.98 03/10/2018 20:03:00 -68.22, 57.95 107.97 1.63 23
3 03/10/2018 20:53:50 67.15,-133.49 70.92 03/10/2018 20:52:43 67.20,-135.57 71.03 89.98 67
4 03/13/2018 10:39:11 -69.35,-162.48 107.83 03/13/2018 10:40:18 -69.23,-160.18 108.01 91.35 67
5 03/13/2018 11:29:37 68.26, 6.30 71.03 03/13/2018 11:30:00 68.28, 6.27 71.05 3.10 23
6 03/13/2018 12:20:18 -68.13, 173.78 109.13 03/13/2018 12:19:31 -68.13, 173.72 109.12 2.67 47
7 03/16/2018 02:55:50 -68.42, -45.45 109.86 03/16/2018 02:57:02 -68.41, -45.34 109.87 4.77 72
8 03/16/2018 03:46:32 68.24, 122.09 69.95 03/16/2018 03:46:29 68.24, 122.10 69.94 0.24 3
9 03/16/2018 04:37:13 -68.10, -70.42 110.21 03/16/2018 04:36:00 -68.08, -70.45 110.22 2.36 73
10 03/18/2018 19:12:44 -68.34, 70.41 111.00 03/18/2018 19:13:31 -68.36, 70.47 110.99 2.98 47
11 03/18/2018 20:03:27 68.17,-122.05 68.81 03/18/2018 20:02:59 68.18,-122.09 68.82 2.13 28
12 03/18/2018 20:53:52 -67.16, 46.48 112.23 03/18/2018 20:52:45 -67.19, 44.41 112.16 89.44 67
13 03/21/2018 10:39:11 69.11, 17.83 68.75 03/21/2018 10:40:19 69.05, 19.59 68.65 70.20 68
14 03/21/2018 11:29:39 -68.27,-173.73 112.13 03/21/2018 11:30:01 -68.29,-173.73 112.12 1.81 22
15 03/21/2018 12:20:23 68.15, -6.27 67.73 03/21/2018 12:19:28 68.16, -6.23 67.75 2.05 55
16 03/24/2018 02:55:53 68.35, 134.62 66.91 03/24/2018 02:57:00 68.36, 134.60 66.90 0.80 67
17 03/24/2018 03:46:35 -68.25, -57.94 113.21 03/24/2018 03:46:30 -68.26, -57.88 113.21 2.76 5
18 03/24/2018 04:37:13 67.81, 109.92 66.33 03/24/2018 04:36:01 67.91, 109.36 66.44 25.84 72




NCC Satellite Simultaneous Nadir Overpasses (SNOs) Prediction Service
